Regional Weather Roundup
Issued by NWS Boston, MA

Home | Current Version | Previous Version | Text Only | Print | Product List | Glossary On
Versions: 1 2 3 4 5 6 7 8 9 10 11 12 13 14 15 16 17 18 19 20 21 22 23 24 25 26 27 28 29 30 31 32 33 34 35 36 37 38 39 40 41 42 43 44 45 46 47 48 49 50
000
ASUS41 KBOX 252110
RWRBOX

REGIONAL WEATHER ROUNDUP
NATIONAL WEATHER SERVICE TAUNTON MA
400 PM EST SAT FEB 25 2017

NOTE:  "FAIR" INDICATES FEW OR NO CLOUDS BELOW 12,000 FEET WITH NO
SIGNIFICANT WEATHER AND/OR OBSTRUCTIONS TO VISIBILITY.

MAZALL-252200-
EASTERN MASSACHUSETTS

CITY           SKY/WX    TMP DP  RH WIND       PRES   REMARKS
BOSTON         PTSUNNY   62  56  80 S18       29.61F
BEVERLY        CLOUDY    56  52  86 SE7       29.61F
LAWRENCE       CLOUDY    66  54  65 SE10      29.62F
BEDFORD        PTSUNNY   64  56  75 S17       29.58F
BLUE HILL        N/A     60  56  86 SE18G25   29.59F
NORWOOD        MOSUNNY   65  58  78 SE13      29.58F
MARSHFIELD     PTSUNNY   63  57  82 S12G20    29.63F
PLYMOUTH       CLOUDY    61  56  83 S12G17    29.65F
TAUNTON        CLOUDY    60  56  86 SE14G23   29.63F
NEW BEDFORD    CLOUDY    57  53  86 SE10      29.62F
$$

MAZALL-252200-
CAPE COD AND THE ISLANDS

CITY           SKY/WX    TMP DP  RH WIND       PRES   REMARKS
FALMOUTH       CLOUDY    57  55  94 MISG      29.66F
HYANNIS        CLOUDY    53  53 100 SE8       29.63F FOG
CHATHAM        FOG       52  51  97 SE8       29.67F VSB 3/4
PROVINCETOWN   CLOUDY    58  54  86 S12       29.66F
NANTUCKET      CLOUDY    53  50  89 SE16      29.64F FOG
MARTHAS VNYRD  LGT RAIN  54  52  93 SE12      29.64F VSB 3/4
$$

MAZALL-252200-
CENTRAL AND WESTERN MASSACHUSETTS

CITY           SKY/WX    TMP DP  RH WIND       PRES   REMARKS
WORCESTER      CLOUDY    62  52  69 SE21G26   29.57F
FITCHBURG      CLOUDY    67  54  63 SE14      29.56F
ORANGE         CLOUDY    64  54  69 S12G28    29.53F
SPRINGFIELD    PTSUNNY   66  54  65 S17       29.51F
WESTFIELD      CLOUDY    65  55  70 S13G21    29.50F
NORTH ADAMS    MOSUNNY   65  50  58 SE15G29   29.44F
PITTSFIELD     MOSUNNY   61  50  67 SE17G29   29.46F
$$

RIZALL-252200-
RHODE ISLAND

CITY           SKY/WX    TMP DP  RH WIND       PRES   REMARKS
PROVIDENCE     CLOUDY    55  52  89 S14       29.61F FOG
NEWPORT        FOG       51  51 100 SE13      29.60F VSB 1/4
BLOCK ISLAND   FOG       51  50  96 SE18G24   29.60F VSB 1/4
SMITHFIELD     CLOUDY    58  55  90 VRB6      29.61F
WESTERLY       FOG       53  50  89 SE10      29.60F VSB 1/4
$$

CTZALL-252200-
CONNECTICUT

CITY           SKY/WX    TMP DP  RH WIND       PRES   REMARKS
BRADLEY INTL   PTSUNNY   66  55  67 S16G25    29.53F
HARTFORD       CLOUDY    65  56  72 S17       29.53F
BRIDGEPORT     CLOUDY    51  46  83 E9        29.53F
DANBURY        CLOUDY    61  55  81 SE10G17   29.51F
GROTON         CLOUDY    52  50  93 SE8       29.58F FOG
NEW HAVEN      PTSUNNY   57  52  83 SE12      29.54F
CHESTER        CLOUDY    61  57  88 S10       29.57F
MERIDEN        CLOUDY    64  55  72 SE12G18   29.54F
WILLIMANTIC    CLOUDY    64  57  78 S10       29.58F
OXFORD         CLOUDY    61  54  77 S13G20    29.54F
$$

MEZ002-015-021-024-NHZ003-005-008-011-012-014-VTZ005-008-252200-
NORTHERN NEW ENGLAND

CITY           SKY/WX    TMP DP  RH WIND       PRES   REMARKS
PORTLAND ME    CLOUDY    49  46  90 SE8       29.66F
BANGOR ME      CLOUDY    52  48  86 S9        29.71F
CONCORD NH     PTSUNNY   66  52  60 SE13G18   29.56F
MANCHESTER NH  PTSUNNY   68  52  56 E18       29.55F
NASHUA NH      MOSUNNY   67  54  63 SE13G24   29.56F
PORTSMOUTH NH  PTSUNNY   55  50  82 SE17      29.60F
JAFFREY NH     CLOUDY    61  53  75 S12G22    29.56F
KEENE NH       CLOUDY    65  53  65 S14G29    29.51F
BURLINGTON VT  PTSUNNY   69  47  45 S22G30    29.35R
MT. WASHINGTON FOG       37  37 100 S63G79      N/A  VSB 1/16WCI  21
$$

NYZ052-076-252200-
EASTERN NEW YORK

CITY           SKY/WX    TMP DP  RH WIND       PRES   REMARKS
ALBANY         PTSUNNY   67  50  54 S22G39    29.41F
NEW YORK CITY  PTSUNNY   63  55  75 S20G31    29.47F
$$

ANZALL-252200-
MARINE OBSERVATIONS

STATION/POSITION TIME  TEMP    WIND        PRES    VSBY  WAVE
                       AIR SEA DIR/SP/G                  HT/PER
                 (UTC) (F)     (DEG/KT/KT) (MB)    (MI)  (FT/S)
BOSTON BUOY      1950   49 44  130/ 14/ 16 1003.7          2/11
BUZZARDS BAY     2000   46     140/ 13/ 13 1004.8F
NANTUCKET SOUND  1950   46 41  120/  6/  8 1005.1          1/ 3
MASS BAY-STELLWA 2004   47 42  140/ 12/ 14 1003.3F         2/10
ISLE OF SHOALS   2100   47     130/ 24/ 25 1002.3F
S OF BLOCK IS    2025      43                N/A           5/ 9
$$

......................KEY.........................
  SKY/WX - SKY CONDITION/PRESENT WEATHER
  TMP    - TEMPERATURE IN FAHRENHEIT
  DWPT   - DEWPOINT IN FAHRENHEIT
  RH     - RELATIVE HUMIDITY IN PERCENT
  WIND   - DIRECTION AND SPEED IN MPH
  PRES   - MEAN SEA LEVEL PRESSURE IN INCHES OF HG
  WCI    - WIND CHILL INDEX
  VSB    - VISIBILITY IN MILES
  HX     - HEAT INDEX
  TC     - TEMPERATURE IN CELSIUS
  VRB    - VARIABLE WIND DIRECTION
  N/A    - NOT AVAILABLE



USA.gov is the U.S. government's official web portal to all federal, state and local government web resources and services.